Location: Melbourne
(37.8666°S, 145.1333°E)
Time: 17:36:33
(UTC+10:00)

Iridium 72 - Visible Passes

Search period start: 27 June 2016 00:00
Search period end: 07 July 2016 00:00
Orbit: 776 x 779 km, 86.4° (Epoch: 26 June)

Date Brightness Start Highest point End Pass type
(mag) Time Alt. Az. Time Alt. Az. Time Alt. Az.
27 Jun 5.6 06:27:41 10° S 06:33:01 84° E 06:38:16 10° N visible
27 Jun 6.8 17:43:43 10° NE 17:47:22 19° E 17:51:03 10° SE visible
27 Jun 6.6 19:22:41 10° NNW 19:27:40 44° W 19:32:44 10° SSW visible
28 Jun 6.7 05:54:22 10° S 05:59:26 44° E 06:04:26 10° NNE visible
28 Jun 5.6 18:48:51 10° N 18:54:06 83° W 18:59:25 10° S visible
29 Jun 7.8 05:21:28 10° SSE 05:25:44 24° E 05:29:56 10° NE visible
29 Jun 6.2 07:01:42 10° SSW 07:06:29 35° W 07:11:12 10° NNW visible
29 Jun 5.7 18:15:34 10° NNE 18:20:38 52° E 18:25:46 10° SSE visible
29 Jun 8.2 19:58:25 10° WNW 20:01:41 16° WSW 20:04:59 10° SW visible
30 Jun 8.5 04:49:31 10° SE 04:51:53 13° ESE 04:54:13 10° E visible
30 Jun 5.5 06:27:50 10° S 06:33:06 67° W 06:38:17 10° N visible
30 Jun 6.4 17:42:53 10° NE 17:47:18 28° E 17:51:45 10° SSE visible
30 Jun 7.4 19:23:18 10° NW 19:27:53 30° W 19:32:31 10° SSW visible
01 Jul 5.9 05:54:19 10° S 05:59:36 66° E 06:04:48 10° NNE visible
01 Jul 6.2 18:49:05 10° NNW 18:54:13 57° W 18:59:27 10° S visible
02 Jul 7.1 05:21:09 10° SSE 05:25:58 35° E 05:30:43 10° NNE visible
02 Jul 6.6 07:02:15 10° SSW 07:06:26 24° W 07:10:36 10° NW visible
02 Jul 5.5 18:15:27 10° N 18:20:41 77° E 18:26:00 10° S visible
02 Jul 8.6 20:00:36 10° W 20:02:01 11° WSW 20:03:26 10° WSW visible
03 Jul 8.0 04:48:30 10° SSE 04:52:12 19° ESE 04:55:52 10° ENE visible
03 Jul 5.8 06:28:06 10° SSW 06:33:08 45° W 06:38:06 10° NNW visible
03 Jul 6.0 17:42:24 10° NNE 17:47:17 41° E 17:52:12 10° SSE visible
03 Jul 8.0 19:24:13 10° NW 19:28:08 21° WSW 19:32:06 10° SSW visible
04 Jul 5.5 05:54:23 10° S 05:59:43 86° W 06:04:57 10° N visible
04 Jul 7.0 18:49:31 10° NNW 18:54:24 38° W 18:59:20 10° SSW visible
05 Jul 6.4 05:21:00 10° S 05:26:09 51° E 05:31:14 10° NNE visible
05 Jul 7.0 07:03:05 10° SW 07:06:21 17° W 07:09:37 10° WNW visible
05 Jul 5.8 18:15:33 10° N 18:20:47 73° W 18:26:06 10° S visible
06 Jul 7.5 04:47:59 10° SSE 04:52:28 27° E 04:56:53 10° NE visible
06 Jul 6.3 06:28:32 10° SSW 06:33:08 31° W 06:37:41 10° NW visible
06 Jul 5.6 17:42:09 10° NNE 17:47:18 60° E 17:52:31 10° S visible
06 Jul 8.4 19:25:37 10° WNW 19:28:27 14° WSW 19:31:17 10° SW visible
